Overview Statistics Trail Chart Weather Telemetry Raw packets
 

This is the latest recevied weather packets stored in our database for station/object WA1NHP. If no packets are shown the sender has not sent any weather packets the latest 10 day(s).

<< 15 16 17 18 19 20 21 >>
Time Temp. Humidity Pressure Rain* Wind** Luminosity Snow
1788386644 18.89° C 89% 1023.9 hPa 0 mm - 33 W/m² -
1788386043 18.89° C 89% 1023.9 hPa 0 mm - 42 W/m² -
1788385444 19.44° C 89% 1023.9 hPa 0 mm - 54 W/m² -
1788384844 19.44° C 90% 1023.9 hPa 0 mm - 47 W/m² -
1788384243 19.44° C 90% 1023.9 hPa 0 mm - 77 W/m² -
1788383644 19.44° C 88% 1023.9 hPa 0 mm - 42 W/m² -
1788383043 19.44° C 86% 1023.9 hPa 0 mm - 51 W/m² -
1788382443 20° C 86% 1023.9 hPa 0 mm - 51 W/m² -
1788381844 20° C 83% 1023.9 hPa 0 mm - 77 W/m² -
1788381244 20.56° C 84% 1023.9 hPa 0 mm - 178 W/m² -
1788380643 20° C 85% 1023.9 hPa 0 mm - 304 W/m² -
1788380043 19.44° C 87% 1023.9 hPa 0 mm - 206 W/m² -
1788379444 20° C 84% 1023.9 hPa 0 mm - 79 W/m² -
1788378844 20° C 85% 1023.9 hPa 0 mm - 146 W/m² -
1788378243 20° C 84% 1023.9 hPa 0 mm - 128 W/m² -
1788377643 20° C 86% 1023.9 hPa 0 mm - 276 W/m² -
1788377044 20° C 85% 1023.9 hPa 0 mm - 193 W/m² -
1788376444 19.44° C 87% 1023.9 hPa 0 mm - 190 W/m² -
1788375844 19.44° C 86% 1023.9 hPa 0 mm - 128 W/m² -
1788375243 19.44° C 85% 1023.9 hPa 0 mm - 123 W/m² -
1788374643 19.44° C 86% 1023.9 hPa 0 mm - 179 W/m² -
1788374057 19.44° C 86% 1023.9 hPa 0 mm - 216 W/m² -
1788373443 19.44° C 85% 1023.9 hPa 0 mm - 137 W/m² -
1788372844 20° C 85% 1023.9 hPa 0 mm - 229 W/m² -
1788372244 20° C 84% 1023.9 hPa 0 mm - 287 W/m² -

* Rain latest hour (hover to see other rain measurements)
** Current wind speed in m/s (hover to see current wind gust speed)